Theta_e
337 337 336 336 337 336 336 336 339 343 345 344 343 342 342 342 342 342 342 342 342 342 342 341 340 340 340 341 341 339 338 338 340 333 323 321 323 323 325 326 326 327 327 328 328 329 330 331 332 332 332 332 332 333 334 335 336 336 335 335 334 334 334 334 334 335 335 335 335 335 335 336 336 336 339 343 345 344 342 342 340 337 334 332 329
336 336 336 336 336 336 336 339 342 344 345 345 344 343 342 342 342 342 342 343 343 343 343 342 342 342 342 343 343 342 340 340 339 331 323 323 324 325 326 327 327 328 328 329 329 330 331 330 330 330 330 331 333 334 335 334 334 334 333 333 333 334 335 336 336 337 337 337 338 338 339 338 337 336 338 341 342 339 336 336 337 336 335 333 331
337 336 335 335 335 335 339 343 345 346 346 346 346 346 345 343 342 343 343 344 344 344 344 343 342 342 342 343 344 344 341 340 336 327 324 326 326 327 327 328 328 328 329 329 330 330 329 328 328 329 330 331 332 333 332 333 333 333 334 335 336 337 338 338 338 339 339 339 340 341 342 341 338 336 337 337 336 333 334 336 337 337 337 336 336
336 334 334 334 336 338 342 345 346 346 347 347 347 347 346 344 342 344 344 345 344 344 345 343 342 342 342 342 343 344 341 341 337 329 326 327 327 327 328 328 329 329 330 329 329 328 327 326 327 328 329 330 330 331 331 332 333 335 336 337 338 338 339 339 340 340 340 340 341 341 344 343 339 335 335 335 335 335 335 336 335 334 335 337 339
334 335 337 339 342 344 345 346 346 347 347 347 347 346 345 344 344 345 345 345 344 344 344 342 342 343 342 341 342 343 341 342 341 338 334 329 327 328 328 329 329 329 328 328 328 326 326 326 327 329 330 331 331 331 332 333 335 336 337 338 338 339 339 339 340 341 341 341 341 341 343 344 341 336 332 332 333 333 332 331 330 330 332 337 340
338 342 345 345 345 346 345 346 347 347 347 347 346 346 345 345 346 346 346 345 344 344 344 343 343 342 341 341 341 343 342 342 342 342 340 333 328 329 328 328 328 327 327 327 327 326 326 327 329 330 331 332 332 332 333 334 335 336 337 338 338 339 339 340 341 342 342 342 343 343 343 344 342 336 331 328 328 329 327 326 326 329 332 336 339
344 346 347 346 346 345 345 346 346 347 347 346 346 345 346 346 346 346 345 345 344 344 343 342 343 342 341 342 343 343 342 342 342 342 340 335 332 331 328 328 327 327 327 326 326 327 328 329 330 331 332 332 333 333 334 335 336 336 337 339 340 341 342 343 343 344 344 345 345 345 344 344 342 337 332 327 325 325 325 325 326 329 332 336 339
346 347 346 346 346 346 345 344 344 346 347 346 346 345 346 346 345 345 345 345 344 343 341 341 343 343 342 343 344 344 343 342 342 342 340 338 338 334 331 330 328 327 328 327 327 328 329 330 331 331 332 334 335 336 337 338 339 339 340 342 343 344 345 345 346 346 346 347 347 347 346 345 344 340 334 329 327 325 325 326 327 330 333 336 338
347 347 347 346 346 345 343 343 344 346 347 347 347 347 346 346 345 345 345 344 344 343 341 342 343 342 342 344 344 343 342 342 343 342 341 339 341 340 336 334 331 329 329 329 329 330 330 330 331 334 337 340 340 339 339 341 342 342 343 344 345 346 346 347 347 348 348 348 348 348 348 347 346 344 339 333 330 328 327 328 329 331 333 337 339
347 347 347 346 347 346 344 344 345 346 346 347 347 347 346 346 345 345 344 344 344 344 343 343 344 342 342 343 343 341 342 344 343 342 341 340 342 343 340 338 337 335 332 330 330 330 330 331 332 336 341 342 342 341 340 341 342 344 344 345 345 346 346 347 348 348 348 349 349 349 349 348 347 346 343 337 333 331 330 331 332 333 335 338 341
347 347 346 346 347 347 346 345 345 345 346 346 346 346 346 345 345 344 344 345 345 345 344 343 343 342 342 342 342 341 342 344 343 341 341 341 342 343 342 340 340 338 334 331 331 330 332 333 333 337 340 340 340 341 341 341 341 343 344 345 346 346 346 347 347 348 348 349 349 350 349 349 348 347 346 341 336 333 332 334 334 336 338 339 342
346 346 346 347 347 346 345 345 344 345 347 346 345 344 345 345 345 345 345 345 344 344 344 343 342 342 341 342 343 342 342 344 343 341 342 341 341 342 342 342 339 338 336 332 331 333 334 333 333 336 338 339 339 339 340 342 343 344 344 345 347 347 347 347 347 348 348 349 350 350 350 350 349 348 346 344 338 334 333 335 337 338 339 341 343
345 345 346 346 346 344 344 343 341 344 346 346 346 344 344 345 345 345 345 344 343 343 343 342 342 342 341 341 341 341 341 343 342 341 343 343 342 341 342 342 341 339 336 332 333 336 338 337 336 336 337 339 340 340 341 344 345 346 345 345 347 348 348 348 349 348 348 350 351 350 349 349 349 348 346 344 339 333 332 334 337 339 340 342 344
344 345 346 346 346 344 343 342 341 345 345 344 345 344 344 345 346 345 344 344 342 341 342 343 342 341 341 341 340 340 340 341 342 341 343 343 342 341 342 342 341 340 338 335 336 337 339 341 342 339 338 340 341 341 342 344 346 347 345 343 345 348 349 349 350 349 348 349 349 348 347 348 348 346 345 342 335 330 331 333 336 338 340 342 344
345 345 346 347 346 343 341 342 344 346 345 343 343 343 344 345 346 346 344 344 343 341 342 345 343 340 340 341 341 340 340 341 342 342 342 341 341 341 343 343 342 340 339 339 340 339 338 341 342 342 341 342 342 342 343 343 345 347 346 343 344 347 348 349 349 349 348 348 347 343 341 343 343 342 341 338 331 328 330 332 335 337 340 342 343
346 345 345 345 344 342 342 342 345 345 344 343 343 343 345 347 346 346 345 344 344 343 343 345 343 341 342 343 343 341 341 342 342 342 341 341 341 340 341 342 341 341 339 340 341 341 341 340 341 343 342 344 343 343 344 344 344 345 345 343 344 347 348 349 349 348 348 347 343 336 334 336 337 337 336 332 327 328 331 332 335 337 340 342 343
344 344 344 344 343 343 343 342 343 344 343 343 344 344 346 347 346 345 345 345 345 345 344 344 345 344 344 344 344 342 343 343 341 340 340 340 340 340 340 340 340 341 339 340 340 340 341 341 341 342 342 344 345 344 345 345 344 344 345 343 344 347 347 349 349 348 349 346 337 329 328 329 330 331 330 328 327 329 331 332 334 336 339 342 343
342 342 343 343 343 343 343 342 342 343 342 342 344 345 346 346 346 345 346 346 346 346 344 345 347 346 345 345 345 345 346 345 342 340 340 340 339 338 339 339 339 340 338 339 341 340 340 340 340 341 341 343 345 345 345 345 345 345 346 345 345 347 347 348 348 347 349 343 330 325 327 329 328 327 326 327 328 329 330 330 332 335 338 342 343
340 342 341 343 344 343 343 342 341 342 342 343 344 345 345 346 346 346 346 345 345 344 343 345 347 347 347 347 346 346 346 345 344 343 341 341 340 337 337 338 338 339 338 339 340 340 340 340 340 340 341 343 344 346 346 345 346 346 348 346 345 345 346 349 348 347 348 339 326 326 333 336 335 331 328 327 327 328 329 327 328 331 335 340 342
340 341 341 343 344 344 344 343 342 342 343 344 345 344 344 345 346 346 345 345 345 345 344 346 347 347 347 347 346 346 346 345 344 344 343 343 342 339 338 338 338 339 339 339 340 340 340 339 340 341 342 343 344 346 346 345 346 347 348 346 345 345 347 350 349 347 346 335 326 332 338 339 338 337 334 330 327 326 326 326 327 328 329 335 339
338 339 341 343 344 343 344 343 343 343 344 346 346 346 345 344 345 346 345 344 345 345 345 346 347 347 347 348 346 345 346 346 344 344 345 345 345 342 340 339 340 339 339 340 340 341 341 340 341 341 342 344 344 346 346 346 348 348 348 347 347 347 348 350 349 347 343 333 329 335 339 340 339 339 338 333 329 328 328 327 327 328 328 330 333
337 339 341 342 343 343 344 344 344 344 344 347 347 346 346 344 343 343 344 344 345 345 345 346 347 346 347 348 346 345 345 346 345 345 346 346 346 344 342 342 341 341 342 342 342 342 342 341 341 341 342 343 344 345 346 347 348 347 348 348 348 349 349 350 350 347 340 335 335 338 339 340 340 340 339 336 334 335 335 333 330 331 331 330 331
339 340 342 342 341 343 344 343 345 345 345 346 347 346 345 343 341 341 342 342 344 345 344 346 347 346 347 348 346 345 345 346 346 346 345 345 346 345 344 344 343 344 344 342 342 343 343 342 342 341 342 344 344 346 347 348 349 348 349 348 348 349 349 350 350 345 340 339 339 339 339 340 340 340 340 338 336 338 340 340 338 336 336 335 333
343 343 342 341 340 342 343 343 343 344 344 344 346 347 346 343 341 341 341 341 343 344 343 345 346 346 346 347 347 346 346 346 346 346 345 344 345 346 347 346 344 345 345 344 343 344 344 344 343 342 342 344 346 347 348 348 349 349 349 348 348 349 349 350 348 342 341 342 341 341 341 340 340 340 341 339 337 338 341 343 343 343 342 339 336
343 343 341 340 340 340 341 342 342 343 344 344 345 348 347 344 343 342 341 341 342 343 342 343 343 344 345 346 348 348 347 347 347 347 346 345 344 345 346 346 345 344 344 345 345 345 345 344 344 344 343 346 347 347 349 349 350 350 349 349 349 349 350 349 345 342 342 344 344 344 342 341 341 341 340 341 339 338 341 344 345 346 346 343 339
342 343 342 340 340 340 341 342 343 343 344 345 345 346 346 345 346 345 344 342 341 341 340 341 342 342 344 347 349 349 348 348 348 348 348 347 346 346 346 345 345 345 345 346 347 347 348 347 346 345 345 347 348 348 348 349 350 350 349 350 350 350 350 347 344 343 344 345 345 344 343 342 342 341 341 341 340 339 340 344 345 346 347 347 343
342 344 345 341 340 341 342 342 343 343 344 345 344 345 346 345 346 348 347 345 343 342 341 341 341 342 344 346 349 350 350 349 349 349 350 350 349 348 348 348 347 348 348 347 347 348 349 349 348 347 348 348 348 348 349 349 350 349 348 349 351 351 350 345 344 345 345 344 344 343 343 343 341 340 340 340 340 340 340 343 344 345 346 347 347
343 346 347 345 342 343 344 343 343 343 344 345 344 344 345 345 345 347 348 346 344 343 343 342 342 342 344 346 348 350 350 349 349 350 350 350 350 349 348 348 349 349 348 347 347 348 348 348 347 347 348 348 347 348 349 349 350 349 348 350 351 350 348 344 344 345 345 344 342 342 343 342 341 340 339 338 340 340 340 342 344 344 345 346 348
344 346 349 348 345 345 346 345 344 343 344 345 343 343 343 343 342 343 345 344 343 343 343 343 342 342 344 347 349 349 349 349 349 350 350 350 349 349 349 349 349 350 350 350 350 349 347 346 346 346 346 345 345 347 349 350 349 348 349 350 348 346 344 342 343 345 345 344 343 344 344 341 340 339 337 337 340 340 340 343 344 344 345 346 347
344 345 348 349 347 346 347 347 346 345 345 345 344 343 342 342 342 342 343 343 343 343 343 343 344 343 343 347 349 350 351 351 351 351 351 350 350 350 351 352 352 351 351 351 350 349 347 347 347 348 346 344 344 345 348 349 347 346 347 346 344 343 341 341 343 343 343 343 343 343 343 341 340 339 337 338 340 341 342 344 346 346 346 347 347
344 345 347 348 347 346 347 348 348 347 346 345 344 344 343 342 343 343 343 343 342 342 342 343 344 343 344 348 351 352 352 352 352 352 351 351 352 351 351 353 353 352 351 351 351 350 349 349 350 350 348 345 343 345 345 345 344 345 345 344 343 343 343 342 343 343 342 342 342 341 339 339 337 336 338 341 341 342 343 345 346 347 348 348 349
347 346 346 346 346 346 347 347 348 348 346 346 345 345 344 343 342 343 343 343 342 343 344 343 343 343 344 347 351 353 352 352 353 353 352 353 352 351 352 353 353 352 352 352 352 351 351 351 351 351 348 345 343 344 343 343 344 344 343 343 344 344 344 344 345 345 344 344 345 343 340 338 337 336 339 342 342 343 345 346 346 348 349 349 349
348 347 347 347 347 347 347 346 346 345 346 346 347 345 344 343 343 343 343 343 343 344 345 344 343 343 343 343 347 351 352 351 351 350 349 349 350 351 353 353 352 352 352 352 352 352 352 352 351 349 346 344 342 342 344 343 343 343 343 343 345 345 345 346 345 345 345 345 346 344 342 341 340 339 341 342 343 345 346 346 347 348 348 348 349
348 348 348 348 349 349 348 347 345 344 345 346 348 348 346 344 344 344 344 343 344 346 346 345 345 345 345 344 346 349 350 349 347 347 345 345 348 352 353 352 353 353 353 353 352 352 352 351 349 347 345 344 342 341 343 342 341 343 343 343 344 345 345 344 344 344 344 344 344 342 342 343 343 343 343 343 344 345 345 346 348 348 348 349 350
349 348 347 348 350 349 349 348 347 347 346 345 348 350 348 347 347 347 346 344 344 345 346 346 345 344 344 345 347 348 349 348 347 349 349 349 351 353 353 353 354 353 352 352 353 353 353 351 348 347 344 341 339 339 339 340 341 343 343 344 345 344 342 341 341 343 344 343 341 342 343 343 343 343 344 343 343 344 344 346 346 346 346 349 350
350 348 347 349 350 350 349 350 349 350 348 347 349 351 349 348 349 350 349 347 345 345 346 346 346 346 344 344 346 348 350 350 350 351 352 354 354 354 354 354 354 353 352 352 353 353 353 352 349 347 343 338 336 336 335 335 338 342 343 344 344 343 342 342 342 343 344 342 341 342 343 342 343 343 343 343 343 344 345 346 345 345 346 349 350
351 349 349 349 350 349 349 350 350 351 350 349 349 350 350 349 349 349 350 350 347 347 347 348 350 351 350 347 346 348 350 352 353 353 354 354 354 353 353 353 353 353 353 353 353 353 353 352 348 343 339 336 334 333 333 332 334 339 343 344 344 344 343 343 344 345 344 342 341 341 342 342 343 344 344 344 345 347 348 348 347 347 348 350 350
352 351 351 349 349 348 348 348 349 350 350 350 351 350 351 351 350 349 350 351 351 350 350 350 352 354 354 352 350 349 349 350 351 352 352 353 353 353 353 352 352 352 352 351 351 352 351 350 346 340 336 334 332 331 332 334 337 340 342 343 343 343 342 341 342 344 343 341 341 342 343 343 343 344 346 347 348 350 351 350 350 350 351 351 350
351 351 351 350 349 348 347 348 348 349 349 349 351 351 351 351 351 350 350 352 352 352 352 352 352 353 354 354 353 351 351 351 351 352 352 352 353 352 352 353 352 350 349 348 349 349 348 347 345 340 335 333 333 335 337 338 341 343 343 343 342 340 340 340 340 341 342 341 341 342 343 344 344 346 347 348 349 350 351 352 351 352 352 352 352
351 350 351 350 350 349 349 349 349 349 348 348 349 350 350 351 351 351 352 352 352 352 352 351 351 352 353 353 353 353 354 354 353 354 353 352 351 350 351 352 351 349 348 348 348 348 348 348 345 339 335 334 337 340 342 343 343 344 345 345 344 343 342 341 341 342 344 344 343 343 344 344 345 346 348 348 348 350 351 352 352 353 353 353 354
350 350 349 349 350 350 350 350 350 350 349 349 349 349 349 350 350 351 352 353 352 352 352 351 352 353 353 353 354 354 354 354 354 354 353 351 350 349 349 349 350 349 349 349 350 349 349 347 343 338 337 339 341 343 345 346 346 346 346 347 346 346 344 342 343 344 346 346 345 344 344 345 346 348 349 348 348 350 350 351 352 353 353 353 353
349 350 350 349 349 350 350 350 350 351 350 350 349 349 349 349 349 349 351 352 352 352 352 352 353 353 353 353 353 353 353 353 353 352 351 350 349 349 349 349 350 350 350 350 351 350 348 346 343 341 341 342 343 345 346 347 347 348 348 348 348 347 346 345 343 345 347 348 347 345 345 346 347 349 350 349 349 350 350 350 351 351 352 352 352
348 348 350 350 350 350 351 350 350 350 350 350 349 349 350 349 350 350 349 350 352 352 352 353 353 353 352 351 351 351 352 352 351 350 349 349 350 349 349 349 350 350 351 351 351 349 349 349 348 345 345 346 345 346 346 346 347 347 347 348 348 348 349 348 347 347 348 349 349 347 345 346 348 349 349 350 350 349 348 348 348 349 349 350 350
349 348 349 350 350 350 351 350 349 349 349 350 350 350 350 350 350 351 350 350 351 352 351 351 351 350 349 348 348 349 350 350 350 350 349 349 349 347 347 348 350 351 352 352 350 350 351 353 352 350 349 348 347 346 347 347 346 346 345 345 347 348 350 351 351 350 349 350 349 348 346 347 349 349 349 350 349 348 347 347 347 347 348 348 349
349 348 348 348 348 349 350 349 349 349 349 349 350 350 350 350 350 351 351 351 351 352 351 350 350 349 348 347 347 348 349 350 349 349 348 349 348 348 347 348 349 351 352 352 351 351 353 354 353 351 350 348 346 346 347 348 347 346 345 345 345 348 350 351 352 351 351 350 349 348 347 348 349 349 349 349 348 348 347 348 348 348 348 348 348
351 350 348 348 349 350 350 350 350 349 349 349 350 350 350 350 350 351 352 351 351 351 351 350 349 349 347 346 345 346 347 348 349 348 348 348 348 348 348 349 350 350 351 352 351 352 354 354 353 351 349 349 347 347 347 348 347 347 347 347 347 348 350 351 351 351 350 349 349 349 349 349 349 349 349 348 348 347 347 348 349 349 348 348 348
352 351 350 350 351 351 351 351 350 350 349 349 349 350 349 349 349 350 351 351 350 350 350 350 350 350 348 346 344 344 345 346 347 347 347 346 346 346 346 347 348 349 351 351 352 353 354 354 353 352 352 350 349 348 348 348 348 349 349 350 351 351 351 351 350 350 349 350 350 350 350 349 349 349 349 348 347 346 347 348 348 348 348 348 348
352 351 350 350 350 350 351 350 350 350 350 349 349 350 349 349 349 349 350 350 349 349 349 350 351 351 348 346 344 343 343 343 344 345 345 345 345 346 346 346 346 347 349 350 351 352 353 353 353 353 353 351 349 350 350 350 349 349 350 351 351 350 349 349 349 350 350 350 350 350 350 349 348 348 348 347 346 346 347 347 348 348 348 348 347
353 352 351 350 349 349 349 350 350 350 350 349 349 349 349 350 349 349 349 349 349 349 349 350 352 351 349 347 345 344 343 343 342 342 343 344 345 346 346 345 345 345 346 348 350 352 353 352 352 351 350 350 350 350 350 350 349 349 348 349 349 349 349 350 350 350 350 349 349 349 349 348 347 347 346 346 345 346 346 346 347 347 347 347 346
352 353 353 352 352 351 350 350 350 350 350 350 349 349 349 350 350 350 350 350 348 348 348 348 349 349 348 348 347 346 345 344 341 340 340 341 343 344 343 343 343 344 346 347 349 351 352 352 350 350 349 349 349 349 349 349 349 348 348 349 349 349 350 350 350 349 348 349 349 348 347 346 346 345 346 345 345 346 346 346 346 347 347 345 343
349 350 351 352 352 352 351 351 350 350 350 350 349 349 350 351 351 351 351 350 349 347 346 346 346 346 346 347 347 347 346 346 343 341 340 340 340 341 342 343 344 345 346 347 349 350 350 349 349 348 349 348 348 348 348 349 349 348 348 349 349 349 349 349 349 348 348 349 347 345 344 344 343 343 344 345 345 344 345 346 346 345 343 338 333
Wind_Speed
19 19 18 18 17 17 17 17 17 16 16 15 14 13 12 12 11 11 10 8 7 6 7 8 9 8 8 7 5 4 5 5 6 9 10 9 8 7 7 7 7 6 6 5 5 6 7 7 6 6 6 7 8 8 8 9 9 9 10 9 9 9 9 10 10 10 10 10 10 10 11 11 11 11 10 9 10 11 12 12 13 14 15 15 15
18 18 17 17 17 17 17 17 16 14 13 13 13 12 12 11 11 11 10 8 6 5 5 4 5 7 9 9 7 7 8 8 8 10 10 9 7 7 7 7 7 6 6 6 6 7 7 7 6 7 8 8 8 9 9 9 10 10 10 10 10 10 10 11 11 11 11 11 11 11 12 12 12 11 10 8 9 10 10 11 11 12 13 14 14
16 16 16 17 17 17 17 16 14 12 11 10 10 10 10 10 11 11 9 7 4 4 2 1 3 4 6 6 6 7 10 10 10 10 10 8 7 7 6 6 6 7 6 6 7 7 7 7 8 8 9 9 9 9 9 10 10 10 10 10 10 11 11 11 11 11 11 12 12 12 12 12 11 11 10 9 9 10 11 11 12 12 13 14 14
14 15 16 17 17 16 15 13 11 10 9 8 8 8 9 11 12 10 7 5 4 5 3 2 3 3 3 3 4 5 8 11 11 11 10 8 6 6 6 6 6 7 7 7 7 8 8 8 9 9 9 9 10 10 9 9 10 9 10 10 11 11 11 12 12 13 13 13 14 13 13 13 12 11 10 10 10 11 11 12 13 14 14 15 16
15 15 16 16 16 15 13 11 9 8 8 8 10 11 12 12 11 8 5 5 6 8 6 5 4 3 3 2 2 3 5 8 9 9 9 7 6 6 6 6 7 7 8 8 8 8 9 10 10 10 10 10 10 10 10 9 9 9 10 10 11 12 12 13 13 13 14 14 15 15 15 14 14 13 12 11 11 11 12 13 14 15 16 16 17
16 15 14 14 14 13 12 9 8 9 9 10 12 13 13 11 9 7 6 6 7 6 4 5 6 3 4 4 2 1 3 5 7 7 8 7 6 6 6 6 7 7 8 8 8 8 9 10 11 10 10 10 10 10 10 9 9 9 10 11 11 12 13 13 13 14 14 15 15 16 16 15 15 15 14 13 12 12 13 15 16 17 18 18 18
14 13 12 12 11 10 9 8 8 9 9 10 12 13 13 11 9 7 7 7 5 4 5 6 4 3 3 5 2 1 1 3 4 6 7 7 6 7 7 7 7 8 8 8 8 9 10 10 10 11 11 11 11 11 11 10 10 10 10 11 12 13 13 13 14 14 14 15 16 16 17 17 16 16 15 15 14 14 15 17 18 18 19 20 19
13 12 12 11 9 9 9 8 8 8 7 8 11 11 10 10 9 8 6 5 4 5 7 6 4 4 4 3 1 3 2 2 2 4 5 5 6 7 7 7 7 7 7 8 8 9 9 10 11 11 12 12 12 12 12 11 11 10 10 11 12 13 13 14 14 15 15 15 16 16 17 18 18 17 16 16 15 16 17 18 19 19 20 20 20
12 11 11 9 8 8 8 8 8 7 6 7 8 8 8 9 9 8 5 4 4 5 7 6 6 7 6 3 1 4 4 1 1 1 1 3 5 6 7 7 7 7 7 6 7 8 9 10 11 11 12 13 13 13 12 11 11 10 11 11 12 12 13 14 14 15 16 16 16 17 17 18 18 18 17 16 16 17 17 18 19 20 20 20 21
12 11 10 9 7 6 6 7 7 7 6 6 7 7 7 9 9 8 5 4 5 5 6 7 8 9 7 5 4 5 4 1 2 2 1 0 3 4 5 6 7 7 6 5 5 6 7 8 9 10 12 13 13 12 11 9 9 9 10 11 12 13 13 14 15 16 17 17 17 17 17 18 18 19 18 17 16 17 17 18 19 20 20 20 20
13 11 10 9 7 5 6 7 7 7 7 7 7 6 7 8 9 8 6 6 5 5 5 6 10 10 8 7 5 5 6 5 5 3 2 2 1 1 3 4 6 7 7 5 5 5 5 5 6 8 9 10 10 11 11 9 8 9 10 12 13 14 14 15 15 16 17 18 18 18 18 18 18 19 19 18 17 16 17 17 18 19 20 20 20
13 11 10 9 7 7 7 7 8 7 6 7 6 6 8 9 10 9 7 6 4 5 5 4 10 12 7 7 5 4 8 9 7 5 3 3 3 2 1 2 4 8 8 5 5 6 5 5 4 4 6 7 8 8 9 9 9 9 10 12 13 14 15 16 16 17 18 18 18 18 18 18 18 18 19 18 17 16 16 17 18 19 20 20 21
14 12 10 9 8 7 8 7 8 7 5 6 6 7 9 10 11 9 8 6 4 6 7 6 11 11 6 5 4 4 7 9 9 8 8 7 7 5 3 0 3 6 8 7 7 8 8 7 6 5 6 8 10 7 6 8 9 10 11 12 13 14 15 16 18 19 19 19 19 19 18 17 17 17 18 18 17 17 17 17 17 18 19 20 21
15 13 10 9 7 7 7 7 8 6 6 7 7 8 9 11 11 8 8 7 5 8 8 7 8 9 6 4 4 4 6 7 8 9 10 11 11 9 6 3 0 4 6 6 5 6 7 8 7 6 7 9 11 9 8 9 9 9 11 13 14 14 15 16 18 19 20 20 20 19 17 16 16 16 17 17 17 17 17 18 18 18 19 20 21
14 12 10 9 8 7 7 7 7 6 7 8 8 9 9 10 9 8 8 6 6 8 7 5 6 7 5 3 3 3 4 4 5 8 9 12 13 11 10 7 3 1 4 5 4 4 4 5 5 5 6 8 10 10 10 11 10 10 11 13 14 14 15 16 19 20 19 21 21 20 18 15 15 15 16 16 16 16 17 18 18 18 19 20 21
12 10 10 9 8 7 7 7 7 7 8 9 9 9 9 10 9 9 8 6 5 7 6 6 7 7 4 2 3 2 3 2 3 5 6 8 12 12 12 11 8 4 1 5 5 4 4 4 4 4 5 6 8 8 9 11 11 11 12 13 14 15 15 17 19 19 19 21 21 21 19 15 14 14 15 15 15 16 17 18 19 19 19 20 21
12 10 9 9 8 7 7 8 8 8 8 9 10 9 10 10 10 9 7 6 6 6 6 7 7 7 4 1 2 2 3 3 3 2 3 4 10 13 14 13 11 9 3 3 3 2 4 6 7 7 7 7 6 6 8 11 11 12 13 14 14 15 16 17 19 18 19 21 20 20 18 16 15 15 15 15 16 17 18 19 19 19 19 19 20
13 11 9 9 8 8 8 9 9 9 10 11 10 10 10 10 10 9 7 6 6 5 5 7 6 7 6 4 1 1 2 3 4 1 2 3 3 9 11 12 13 12 6 2 2 3 4 6 8 8 9 9 8 6 7 10 11 12 15 16 16 15 15 17 18 18 19 19 18 18 18 18 18 18 17 16 17 18 19 19 20 19 19 19 20
14 12 10 9 8 8 9 10 10 9 10 10 9 9 10 10 9 8 7 6 5 4 6 7 6 5 6 4 2 2 3 3 5 4 4 7 5 2 7 11 12 10 7 5 4 4 4 5 7 8 8 9 9 8 8 10 11 13 16 18 16 15 15 17 18 18 18 17 15 16 18 20 20 20 19 18 18 18 19 20 20 20 19 19 19
15 13 12 10 9 8 9 9 10 10 10 9 9 9 10 10 8 7 8 7 6 5 6 6 5 5 6 4 2 1 2 3 4 5 5 6 7 4 5 8 7 6 5 5 4 4 6 6 6 9 9 7 7 8 9 10 10 13 17 18 16 15 15 17 18 18 16 14 13 14 17 19 20 21 21 20 19 20 20 21 21 20 20 19 18
14 13 12 11 10 9 9 10 10 10 10 10 9 10 10 9 8 8 10 9 7 6 5 4 4 5 6 5 3 3 0 2 3 4 5 4 6 6 4 5 4 2 3 3 3 5 6 4 5 9 9 6 6 7 9 9 10 13 17 19 16 15 15 17 18 18 14 11 11 13 15 17 18 20 22 21 20 21 21 21 21 21 20 20 18
14 12 12 11 10 10 10 11 10 10 10 11 10 9 9 8 7 8 10 10 8 7 6 4 4 4 5 5 4 4 2 1 2 3 4 4 5 5 4 3 3 3 2 1 2 4 4 4 7 9 8 8 10 10 9 8 11 14 19 20 17 14 15 16 19 17 12 10 10 12 14 15 17 18 20 21 21 22 22 21 20 20 20 20 20
14 12 11 11 10 10 10 11 11 10 10 11 9 7 8 7 7 8 9 10 10 9 7 6 4 4 5 5 4 2 1 2 4 4 4 4 4 3 3 3 3 3 2 2 3 4 5 6 9 9 8 9 11 11 8 9 12 16 18 18 15 14 14 16 19 15 10 9 10 12 14 15 16 17 18 19 20 22 22 21 20 21 21 21 20
13 12 11 11 11 11 11 11 11 11 10 11 9 7 6 6 7 7 8 9 10 11 9 8 7 5 5 6 4 2 2 3 5 6 6 6 6 5 4 5 4 4 4 4 4 5 7 8 8 8 8 9 10 10 9 11 14 16 17 16 15 15 14 16 18 12 8 9 11 13 14 15 16 17 17 18 19 21 22 22 22 22 22 21 20
12 11 11 11 12 12 11 10 10 9 9 10 10 8 7 7 7 7 8 8 8 10 10 10 9 7 6 6 4 3 3 4 4 5 6 7 7 7 6 7 7 7 6 7 7 8 8 9 8 6 6 8 8 8 9 12 15 15 15 16 15 14 14 16 15 9 9 13 14 14 16 17 17 17 16 17 18 19 21 21 22 23 24 22 20
12 10 10 11 12 12 11 10 9 9 9 9 9 8 7 8 7 6 7 6 7 9 9 9 10 9 8 8 5 3 4 5 4 4 5 6 7 8 8 8 8 8 8 9 9 10 9 8 7 5 6 7 8 9 11 14 15 15 16 15 14 13 14 15 11 10 12 14 14 14 17 19 18 17 17 16 17 18 20 20 21 22 23 23 22
12 10 10 11 12 12 11 10 9 8 8 8 8 8 8 8 7 7 6 6 6 8 8 8 9 9 9 9 7 5 4 5 4 3 4 5 6 7 7 9 9 8 9 9 9 9 9 8 7 7 7 9 11 12 14 14 15 16 15 13 11 13 15 13 10 11 14 14 13 14 17 19 17 16 16 15 16 18 19 19 20 21 22 23 23
12 11 12 12 12 12 11 10 10 9 8 8 9 9 9 9 8 8 7 7 6 6 7 7 9 9 8 9 8 6 5 6 5 5 4 4 5 6 7 8 9 9 10 11 9 8 8 8 8 8 9 12 14 14 15 15 15 15 12 10 11 14 16 12 9 11 14 13 13 15 17 17 16 15 15 14 15 18 19 18 19 21 21 22 23
13 12 12 12 11 11 11 11 10 10 9 9 9 10 10 9 9 9 9 8 8 7 7 7 8 9 8 8 9 7 6 6 6 6 5 4 4 6 6 7 8 8 9 11 11 10 9 8 8 9 11 12 14 14 14 15 15 13 11 10 11 14 15 11 8 11 14 13 13 15 17 17 16 16 15 14 15 18 19 17 17 19 21 21 21
14 14 13 13 12 11 11 12 11 11 11 10 10 10 10 9 9 9 9 10 9 7 6 7 8 9 8 9 9 9 7 6 7 7 6 5 5 5 5 7 7 7 8 10 12 11 9 8 9 11 12 12 12 12 13 15 15 13 10 10 11 13 13 11 10 13 13 12 13 16 17 17 17 18 16 14 16 19 17 15 16 17 19 19 19
15 15 15 14 13 12 12 12 12 12 11 11 11 11 10 10 9 8 8 10 9 7 6 7 8 9 9 10 10 9 8 7 8 9 8 7 7 6 5 6 8 8 9 10 12 11 10 11 11 12 13 12 10 11 12 12 11 10 9 10 10 11 12 13 14 15 12 11 14 17 17 18 19 17 14 14 17 17 15 15 17 17 16 17 17
15 15 15 14 13 13 13 13 13 12 12 12 12 11 11 10 10 9 9 9 9 7 7 8 7 8 10 11 11 10 9 9 9 10 10 10 10 9 7 6 7 9 10 11 13 13 12 13 13 13 12 11 10 10 10 9 8 9 8 8 9 11 11 13 15 15 13 13 16 19 21 21 19 14 12 15 17 16 16 19 20 18 15 14 15
15 15 14 14 13 13 13 14 14 12 11 11 11 11 11 11 10 10 9 9 8 7 7 8 7 7 9 11 12 11 9 9 10 10 10 10 11 10 8 7 7 9 10 11 13 14 13 12 12 11 10 10 10 8 7 7 8 9 8 8 11 12 12 14 15 14 13 14 16 19 22 22 19 15 14 17 18 18 19 21 20 17 13 12 13
16 16 15 14 14 13 13 14 14 12 11 11 10 11 11 10 10 10 10 9 8 6 7 7 7 7 8 9 11 10 9 7 6 6 6 7 8 9 9 8 7 9 11 11 12 14 13 11 10 9 9 9 9 7 7 8 9 9 9 10 12 12 12 13 13 12 12 13 17 20 20 20 20 19 18 17 18 19 19 19 17 13 9 10 12
16 17 16 15 14 13 13 13 13 12 12 12 11 10 10 10 10 10 9 9 8 7 7 7 7 7 8 9 9 9 7 6 5 5 5 4 7 9 8 7 8 9 10 11 11 12 13 12 11 10 9 9 8 8 9 9 8 9 11 12 12 11 12 13 12 12 12 14 19 20 19 20 22 22 21 19 17 17 17 16 13 9 7 9 13
16 17 16 16 15 15 14 14 13 13 13 13 12 11 10 9 10 10 9 9 9 8 8 8 7 7 8 8 8 7 5 4 5 6 5 5 7 8 9 8 8 9 9 8 9 11 13 14 13 12 11 12 12 11 12 11 9 9 11 12 12 13 14 14 13 12 14 17 20 20 21 22 23 24 23 20 17 16 15 14 11 6 6 9 13
16 15 15 16 16 16 15 15 14 15 14 13 12 12 11 10 10 10 10 9 9 9 8 8 7 7 8 8 7 7 6 5 5 6 6 8 7 7 8 8 7 8 8 8 9 10 12 14 14 13 14 15 15 14 14 14 12 10 11 12 14 16 16 14 13 14 17 20 20 21 22 23 25 25 23 19 16 14 13 12 9 6 6 9 11
16 14 14 15 16 17 16 15 16 16 15 13 13 12 12 12 11 11 10 10 10 10 9 8 8 8 8 8 7 7 7 7 7 6 7 8 8 7 6 6 7 9 9 9 10 11 12 14 15 16 16 16 16 15 13 12 12 13 14 15 16 17 18 17 17 17 19 20 20 21 24 25 27 26 22 17 13 10 9 9 7 5 6 7 7
16 14 14 14 14 15 15 15 16 16 15 15 14 13 13 13 13 12 11 10 11 11 10 8 8 9 10 10 9 8 8 8 7 6 6 7 8 8 8 8 9 9 9 10 11 12 14 15 17 18 18 17 16 14 12 11 11 13 16 18 19 18 18 19 18 18 19 19 20 22 26 28 28 25 20 15 11 8 8 8 7 6 7 7 7
18 16 14 14 13 12 13 14 15 15 15 16 15 15 15 15 14 13 12 12 13 12 11 10 9 9 10 10 10 10 9 9 8 8 8 8 8 9 8 9 10 9 9 11 12 14 16 18 19 18 17 15 13 12 11 11 12 13 15 18 20 20 20 19 18 19 20 21 23 25 29 31 28 23 18 16 13 9 8 9 9 8 9 9 9
20 19 17 15 14 13 13 13 14 15 16 16 17 16 16 16 16 15 14 14 14 14 14 13 11 10 10 10 9 9 10 10 10 10 10 9 9 9 8 9 10 10 11 12 14 16 17 18 18 16 15 14 11 11 12 12 13 14 15 17 19 20 21 21 19 19 22 24 27 29 32 31 27 21 18 18 16 13 10 10 10 10 10 11 11
23 22 20 18 16 15 15 14 15 17 18 18 17 17 17 17 17 17 16 15 15 15 15 14 12 11 11 11 11 10 10 10 10 9 9 9 10 10 10 11 12 11 12 13 14 15 16 16 15 14 14 13 11 12 14 13 14 15 16 17 19 20 21 23 22 21 23 27 30 32 33 30 25 21 19 18 17 16 15 14 12 12 13 14 14
24 24 22 20 19 18 17 17 17 19 19 18 17 17 17 18 18 18 17 16 15 15 15 14 13 12 11 10 10 9 10 11 11 11 10 11 12 12 12 13 13 12 12 13 13 14 14 14 13 13 13 14 13 14 15 15 16 16 17 18 20 21 22 25 26 25 26 29 32 34 34 28 23 21 19 18 17 18 18 17 15 14 14 13 13
22 23 23 22 21 21 20 20 19 19 19 19 18 17 17 17 18 18 18 16 14 14 13 12 12 11 9 8 9 9 10 11 12 13 12 12 13 13 13 12 12 12 12 13 13 13 13 13 13 12 13 14 15 15 15 17 18 19 19 20 21 22 22 24 27 28 28 29 32 34 32 26 21 20 18 17 18 19 19 17 15 14 13 13 13
21 22 23 23 23 23 22 21 21 20 19 19 19 19 18 17 17 18 18 16 15 14 13 11 10 10 10 11 12 12 12 13 13 13 12 12 13 13 13 13 13 13 13 13 13 13 13 14 15 14 14 15 17 18 18 19 21 21 22 22 22 22 23 24 26 27 28 29 30 31 29 24 20 19 18 18 19 19 18 16 14 12 13 14 14
23 22 22 23 24 25 24 23 22 22 21 22 22 21 20 19 19 19 18 17 16 16 15 13 12 13 14 14 14 13 13 13 12 12 12 12 13 13 12 13 13 13 14 14 14 15 15 15 16 17 17 18 20 21 20 21 22 22 22 22 22 22 23 24 25 26 26 26 26 27 26 22 19 19 19 19 19 19 17 14 12 11 13 14 14
26 24 22 21 23 24 25 26 25 25 24 25 24 24 22 21 20 21 20 18 18 18 18 17 16 17 18 17 17 16 16 15 14 14 14 15 15 15 14 15 15 15 15 16 16 17 17 16 17 18 20 21 21 22 22 22 22 21 21 21 21 23 24 25 25 24 23 22 21 22 22 20 19 20 20 19 19 18 15 13 12 12 12 12 12
31 29 26 25 24 24 24 25 27 27 26 26 26 26 23 21 21 21 21 20 20 20 21 21 20 20 21 21 19 18 18 18 18 18 18 17 17 17 17 17 16 17 18 19 20 20 20 19 19 19 20 21 21 22 23 23 23 22 21 21 21 23 24 24 24 22 21 19 18 18 19 19 19 20 20 19 18 15 13 12 13 13 12 12 12
32 32 32 32 31 29 27 26 27 27 26 25 26 25 23 21 21 21 21 21 22 23 23 24 23 23 23 23 22 20 19 19 21 22 22 20 19 18 18 18 18 18 19 20 21 21 20 19 18 18 19 21 21 23 24 24 23 23 22 22 21 21 21 21 22 21 19 17 16 16 17 18 17 18 18 18 15 13 13 14 14 14 14 13 12
30 30 30 32 32 32 30 27 28 28 27 26 26 25 24 23 23 23 22 23 24 25 26 26 27 27 26 26 25 23 20 19 20 22 23 23 22 21 20 20 20 19 19 19 20 20 19 18 19 19 19 20 21 21 21 20 20 20 19 20 19 19 19 19 19 20 18 15 14 15 16 16 16 17 19 19 16 13 14 15 15 15 15 14 14
30 31 31 32 32 31 29 28 29 29 28 27 27 27 26 26 26 25 25 25 25 26 27 27 28 29 28 28 27 24 22 21 20 21 22 22 22 21 20 19 19 18 18 18 19 19 19 19 18 18 18 18 18 18 16 16 16 16 16 16 17 17 16 16 16 18 17 15 14 15 16 16 16 16 18 19 18 17 16 15 16 15 15 15 16
Wind_Direction
146 145 143 140 137 133 129 127 125 120 119 124 130 132 132 133 135 138 138 138 138 147 143 117 95 81 77 72 51 44 61 61 53 46 45 51 57 62 68 73 76 75 75 75 77 76 73 72 68 67 67 65 64 60 59 56 52 48 44 40 36 33 30 28 27 26 24 21 18 14 10 3 358 357 352 343 338 334 330 327 327 325 321 316 311
143 142 140 136 133 130 126 124 122 120 121 128 136 139 139 137 135 137 138 137 137 150 155 121 86 70 69 66 56 55 67 69 63 59 52 52 59 64 69 75 79 77 78 80 80 82 77 74 72 73 74 71 70 66 64 61 57 53 48 46 42 39 37 35 33 32 31 29 27 23 20 15 10 7 5 357 343 340 342 342 341 338 336 333 329
138 138 136 132 130 128 125 121 120 123 126 130 134 138 143 142 138 135 134 136 146 165 172 127 102 83 74 64 53 53 62 64 62 65 59 52 58 64 69 75 83 84 84 86 85 84 79 78 79 79 79 76 73 70 66 62 59 57 53 50 47 44 41 38 36 35 34 32 30 28 25 23 18 14 11 8 2 2 5 4 360 356 353 350 347
135 134 132 128 126 126 125 123 123 127 127 126 128 132 138 142 142 139 137 140 149 159 169 165 134 114 111 69 51 54 62 64 61 63 60 54 57 62 71 78 85 88 85 85 84 84 83 83 84 82 80 78 75 70 66 63 60 58 55 51 47 43 40 37 36 34 32 29 28 26 25 24 22 19 17 18 16 14 12 8 5 2 0 0 359
135 131 129 128 126 127 129 130 130 131 128 123 124 125 131 141 148 150 147 146 147 148 156 174 180 164 143 102 55 58 66 71 63 57 51 49 58 61 70 77 82 86 85 85 84 86 87 87 87 84 81 77 73 69 65 62 60 56 52 49 45 41 39 37 35 32 29 27 26 25 24 21 20 19 19 20 18 15 12 9 7 5 3 4 5
134 130 128 130 131 133 133 134 132 132 131 125 126 130 137 146 152 149 141 138 137 133 144 168 180 169 122 108 108 61 64 80 67 54 46 49 63 66 69 74 79 82 82 85 86 88 90 91 89 83 78 74 69 65 61 57 53 50 47 45 44 42 40 38 35 33 29 26 26 25 24 22 19 18 18 17 17 15 13 11 8 6 6 6 7
131 128 130 133 133 135 135 138 141 139 136 129 133 141 144 147 147 138 129 122 109 101 126 145 157 161 120 111 127 281 315 90 70 59 56 61 72 75 75 72 73 77 81 84 86 89 90 89 85 81 77 71 67 62 58 55 51 48 46 45 44 42 41 38 35 32 29 25 23 24 23 22 20 18 17 15 14 13 11 9 5 5 5 5 7
130 130 133 133 134 143 147 148 146 147 149 142 142 148 150 146 142 138 131 121 112 125 142 145 146 147 136 119 187 252 220 134 91 72 64 64 67 76 81 74 67 70 78 85 89 92 92 91 87 84 81 75 70 64 59 57 55 52 49 46 43 40 38 35 33 29 26 22 19 19 18 18 18 16 15 14 13 11 9 5 2 3 4 4 6
137 140 142 140 143 152 154 151 151 159 165 157 151 156 159 153 149 151 151 133 128 145 155 158 153 140 137 133 194 202 184 149 130 121 82 67 62 66 72 73 70 63 68 84 92 94 98 100 96 91 87 79 73 67 63 61 58 53 47 42 37 33 30 27 26 23 21 17 14 13 11 11 12 12 12 11 12 11 8 3 359 359 0 2 4
153 157 156 153 154 160 162 159 161 164 165 166 162 163 168 165 163 164 159 133 123 134 145 161 164 155 157 160 159 178 185 255 242 201 224 124 69 52 52 67 74 64 61 72 82 91 98 100 99 96 90 82 76 69 66 61 55 46 37 33 28 24 22 19 17 16 14 12 8 6 5 4 4 6 6 7 9 11 9 4 359 356 357 0 3
161 165 164 162 167 182 188 177 167 162 165 175 172 170 176 173 170 172 164 142 125 123 134 174 180 165 165 172 164 181 202 224 226 206 216 230 161 61 39 46 61 65 65 66 72 77 77 81 92 91 82 76 73 70 66 60 51 39 27 23 20 17 16 14 11 9 8 6 3 360 359 358 358 359 360 0 2 6 8 4 358 354 354 357 360
164 170 171 172 178 188 193 187 175 167 170 180 178 171 173 174 172 174 170 151 127 119 111 154 175 166 167 184 186 189 200 211 223 228 233 239 239 211 114 29 46 65 68 71 74 68 57 62 75 67 57 56 53 60 62 54 46 34 21 15 14 13 13 12 8 5 4 3 359 355 352 351 352 352 353 354 356 359 2 2 358 352 351 353 356
171 176 177 178 177 180 186 188 180 176 182 181 173 163 167 174 174 173 165 152 130 123 113 116 155 168 171 189 201 187 193 206 219 231 240 251 257 240 202 88 33 61 75 85 77 68 59 55 54 42 41 39 31 35 43 35 30 22 15 12 9 8 8 9 6 2 1 360 358 354 348 344 345 347 347 349 351 353 355 357 356 351 348 349 352
177 181 181 184 183 183 185 184 179 180 184 172 160 157 166 174 172 166 154 140 121 124 127 126 150 169 167 166 180 172 184 200 215 227 235 243 247 238 219 210 339 54 81 94 74 57 56 49 48 44 39 31 20 18 20 17 14 7 6 6 4 1 1 4 2 360 359 358 357 354 348 341 340 342 343 345 348 350 351 352 352 350 347 346 348
182 183 183 185 186 183 179 175 175 173 169 161 156 157 163 172 171 163 148 130 120 127 133 138 156 175 176 177 186 182 192 201 229 232 229 232 233 234 232 225 220 73 68 80 58 30 35 33 35 33 26 22 16 11 11 11 8 360 357 357 358 356 353 357 357 356 356 356 356 354 350 345 340 341 342 344 348 350 350 349 349 349 346 343 344
188 188 184 180 175 173 172 174 176 173 165 157 157 161 164 173 175 166 152 133 128 137 141 139 152 177 190 223 222 231 235 258 290 247 238 236 231 238 240 233 225 219 50 66 71 41 20 4 356 355 358 10 13 8 6 4 360 356 355 354 356 352 348 352 353 353 354 354 354 354 353 352 349 348 348 348 349 349 348 347 347 348 346 344 342
195 196 188 178 171 170 170 172 177 175 168 159 159 165 170 175 174 167 157 141 130 132 143 134 137 162 167 192 216 239 265 323 351 226 229 249 229 231 236 234 226 220 241 43 64 19 352 341 330 325 328 339 352 358 359 357 352 351 353 352 350 347 345 348 350 350 352 352 355 358 1 4 4 1 357 353 350 348 347 346 346 347 345 345 342
196 198 193 181 173 174 171 169 174 176 171 165 164 171 175 172 169 168 161 148 137 131 145 142 136 145 134 118 133 352 340 13 23 97 107 57 230 229 233 233 226 223 241 306 338 310 312 327 330 326 318 314 322 337 347 349 346 345 348 347 344 343 344 348 349 349 350 352 1 9 16 18 14 9 2 356 351 347 346 346 345 345 344 344 343
196 197 194 184 174 176 174 171 172 174 175 171 171 178 177 171 169 173 173 162 155 155 161 160 153 148 139 130 99 20 11 22 14 4 52 59 61 199 223 226 225 230 243 267 285 283 290 315 333 335 325 308 304 315 330 339 341 338 341 343 343 343 345 348 348 347 348 355 9 19 24 23 19 15 7 359 352 348 346 346 345 344 344 343 342
196 196 195 184 175 178 181 180 177 176 182 183 183 184 179 176 177 184 189 181 174 178 173 165 160 163 165 161 151 71 22 8 359 355 11 50 65 90 190 209 223 236 237 243 254 282 299 301 316 325 327 315 295 300 318 331 334 332 335 339 340 340 342 347 348 346 348 358 14 20 21 20 19 18 12 4 358 354 351 350 348 346 345 345 343
197 194 195 187 180 186 187 188 187 186 191 191 186 187 183 180 182 190 195 191 187 190 182 168 163 170 179 183 203 209 175 20 13 15 19 36 52 65 123 170 183 193 196 216 258 306 308 287 304 316 315 317 311 306 311 319 324 324 328 331 329 330 336 344 348 347 348 359 11 13 13 12 13 14 13 10 7 4 359 355 352 350 348 348 347
197 190 193 190 188 191 188 189 191 193 196 190 183 187 184 179 183 192 195 194 199 201 191 176 171 178 192 199 214 223 221 38 27 21 21 21 29 49 74 105 110 107 140 215 282 314 307 283 301 308 306 318 324 318 308 305 313 317 323 325 323 326 334 341 346 346 349 360 6 6 5 4 3 5 7 10 11 10 5 360 355 352 351 350 351
196 190 191 192 194 193 190 194 196 194 196 195 194 192 186 183 188 190 192 198 207 209 201 191 189 199 214 216 218 233 284 349 356 358 354 348 348 3 17 20 41 45 340 296 285 302 312 307 305 305 309 322 325 319 307 300 310 316 320 324 325 330 335 340 344 345 347 355 358 358 359 358 355 355 358 3 8 8 7 5 1 358 355 352 351
196 197 196 194 199 198 196 201 201 197 197 203 208 201 191 196 200 195 193 198 207 211 212 208 205 218 228 221 219 232 286 326 334 337 329 322 321 319 326 326 323 336 334 323 310 312 319 316 310 306 312 323 323 315 310 313 319 322 325 329 333 332 335 342 345 346 345 346 348 348 349 351 348 346 349 355 1 4 6 9 8 5 2 358 353
200 202 200 197 202 204 202 203 204 202 201 205 210 209 206 208 208 203 195 196 205 211 218 221 221 233 233 217 212 230 260 301 323 326 317 310 306 301 308 310 302 301 308 310 307 306 306 307 307 302 307 317 315 307 314 323 327 329 330 334 335 330 334 345 350 348 345 343 341 339 341 345 344 341 342 347 352 358 3 7 9 7 6 4 359
207 206 205 201 203 205 205 205 206 209 211 214 218 221 224 221 220 216 202 203 211 212 216 224 228 232 228 219 213 223 253 280 304 316 307 303 302 298 300 304 302 298 299 303 306 303 299 300 301 295 296 301 297 298 309 320 327 329 329 332 332 326 334 347 352 350 350 349 343 338 341 343 342 341 341 343 345 350 358 3 4 4 5 6 5
213 212 212 208 206 208 209 208 209 213 218 222 223 227 232 231 229 226 221 220 221 218 217 224 229 227 225 225 222 222 248 263 273 290 297 303 308 307 305 305 306 304 302 303 306 305 300 297 294 289 289 292 296 302 308 316 327 331 331 331 325 323 334 343 347 349 352 351 345 341 342 343 345 345 344 344 345 346 352 358 358 358 0 3 5
214 214 214 213 209 211 214 215 216 218 222 225 225 228 232 235 234 231 234 239 238 233 229 230 232 229 231 233 228 228 243 250 247 253 275 300 307 312 316 312 310 311 311 310 312 316 316 311 302 296 295 299 303 305 307 314 326 335 337 329 321 327 335 336 339 347 346 340 339 340 341 343 347 347 346 348 350 348 349 353 353 353 355 358 2
213 212 213 216 215 216 218 220 223 224 225 227 228 230 232 236 239 238 238 245 252 251 246 242 237 233 233 232 231 232 234 241 245 248 258 276 292 308 316 310 305 312 317 317 316 320 328 328 318 314 312 309 307 304 305 312 322 333 334 325 329 339 341 335 326 331 333 333 338 340 341 342 342 342 346 351 351 349 349 350 349 348 349 352 356
212 213 215 218 220 221 221 221 225 227 226 224 226 230 232 235 239 241 240 243 250 253 251 247 244 244 236 229 234 236 231 240 251 253 256 266 279 293 304 302 300 305 309 310 312 316 325 328 325 325 324 319 312 305 305 312 320 330 336 337 349 359 1 357 346 337 334 334 340 341 338 337 336 339 345 346 345 345 347 348 348 346 345 347 350
214 216 217 220 222 222 223 222 223 226 226 225 228 231 231 232 234 237 237 240 246 247 244 243 245 245 236 228 234 237 234 239 249 256 258 264 271 273 282 295 297 298 300 302 306 312 319 321 322 326 325 322 319 313 313 320 330 339 344 351 4 9 9 6 1 357 351 343 346 348 343 339 337 338 340 337 336 338 342 347 347 343 341 342 344
214 216 218 220 222 224 227 227 225 226 227 226 229 232 232 231 232 234 234 237 241 239 237 238 239 240 235 229 232 237 239 240 246 254 257 262 269 269 272 285 296 301 302 301 302 307 315 316 317 322 325 325 327 326 326 335 349 350 349 354 356 355 355 354 352 354 349 341 345 348 347 347 344 338 332 330 331 333 337 341 341 339 339 338 337
217 218 219 221 224 226 229 229 228 228 229 228 228 231 232 230 230 234 234 236 241 240 235 233 234 238 237 234 235 238 242 247 252 256 256 258 262 262 263 276 294 300 300 301 301 305 311 312 314 322 328 329 331 333 333 341 349 351 351 349 343 340 341 341 339 339 336 333 338 340 343 347 349 341 329 325 326 328 328 329 332 337 336 330 331
220 221 223 225 227 227 228 230 231 230 231 232 231 231 232 231 231 233 235 238 240 238 232 228 233 240 240 241 241 243 250 259 259 253 250 247 247 249 258 275 291 296 298 302 302 304 310 314 320 328 330 328 328 329 330 335 344 346 343 340 336 334 333 332 331 330 329 332 337 340 341 345 349 348 341 333 327 324 321 320 326 335 329 322 331
221 224 227 229 228 227 228 231 232 232 233 233 233 234 234 233 235 236 239 243 242 239 236 230 233 239 239 242 247 254 269 273 242 221 226 232 235 244 259 277 289 294 298 302 305 308 313 317 323 328 330 332 333 335 336 336 337 337 335 333 330 329 330 331 329 326 324 329 336 340 340 340 345 349 347 342 336 331 325 322 327 331 320 321 328
221 223 227 229 229 229 230 231 230 231 234 234 231 232 234 236 237 237 240 247 249 249 244 236 238 246 244 243 244 248 257 253 227 222 235 250 252 260 269 275 285 293 296 299 307 313 314 315 318 324 331 335 337 338 338 333 325 324 329 330 328 329 332 331 327 320 320 326 332 334 334 338 345 348 346 343 340 338 332 328 332 333 324 328 329
222 223 228 232 232 231 231 233 233 231 233 235 233 232 234 237 238 238 238 243 253 257 253 249 251 254 249 242 238 237 239 241 241 240 248 257 262 267 267 270 282 291 290 293 304 311 310 309 313 322 331 333 332 333 334 327 317 313 319 324 325 327 327 323 317 314 317 322 327 328 331 339 346 348 347 345 342 343 342 338 338 334 328 336 340
227 228 231 235 236 235 235 236 236 235 233 234 235 236 239 241 243 243 240 240 248 255 258 259 258 258 256 252 249 249 251 254 256 257 260 258 252 250 256 271 283 283 282 287 294 300 301 304 312 321 326 326 325 327 331 328 322 320 322 319 318 319 317 313 311 313 318 321 324 328 335 343 347 347 347 347 345 347 352 348 339 331 334 339 347
232 233 235 240 242 239 237 236 235 235 236 237 238 238 240 243 245 245 243 244 247 249 253 259 260 261 264 265 265 261 256 254 253 260 269 262 251 248 255 266 273 279 287 293 298 302 303 306 310 313 316 317 319 325 333 335 332 331 329 323 319 319 317 316 318 321 323 325 326 332 341 345 345 344 344 345 346 343 340 341 335 327 328 331 334
234 236 238 243 245 240 237 238 236 235 238 239 239 239 239 239 241 244 247 251 252 254 256 258 260 261 264 268 269 264 257 256 256 256 259 257 256 258 259 262 270 283 297 302 304 305 303 301 301 303 307 311 317 326 333 337 336 334 333 328 323 323 322 323 326 328 330 331 332 336 342 344 343 344 343 342 346 343 326 327 333 327 321 324 329
238 241 243 245 246 243 238 237 236 235 237 237 235 235 235 233 233 237 244 250 253 254 255 255 257 261 263 263 261 258 257 259 262 262 262 260 261 266 267 264 266 277 290 296 298 299 299 298 298 300 303 306 315 326 329 332 334 330 326 323 320 322 323 322 326 331 333 334 334 335 340 341 340 342 343 342 347 352 340 327 330 330 323 321 324
240 242 242 243 245 245 241 238 236 234 236 238 236 233 234 235 234 233 236 242 247 249 249 250 253 255 257 257 255 254 255 256 258 259 264 266 264 268 271 266 262 268 279 288 293 298 301 300 299 300 301 302 310 319 320 320 320 316 314 313 313 316 319 320 324 331 334 332 330 331 336 340 338 337 341 342 344 348 344 334 332 332 327 323 323
239 240 238 239 242 243 241 238 236 233 234 237 235 233 234 236 235 234 234 235 240 246 247 246 247 249 252 255 255 253 254 258 257 251 254 260 261 263 266 262 257 260 271 282 289 298 302 301 299 298 299 302 306 311 314 313 309 308 308 308 309 310 313 315 319 326 330 328 325 326 331 337 336 334 339 342 340 341 339 333 331 329 327 326 325
236 235 233 233 237 239 239 240 239 236 235 233 232 233 236 237 235 234 233 230 231 237 240 241 244 244 240 236 237 243 248 254 255 254 258 262 263 263 263 260 254 254 263 274 282 292 299 299 296 293 295 300 303 306 311 310 308 307 308 307 307 307 309 310 312 317 322 323 322 322 327 334 335 332 336 340 340 341 339 333 327 322 321 323 320
239 237 234 233 234 236 239 243 245 245 243 239 236 238 240 242 238 233 230 228 225 225 228 233 234 231 228 227 231 239 243 246 252 259 265 269 270 268 264 261 258 256 259 266 273 282 289 291 291 291 292 296 298 302 306 307 306 306 306 305 305 305 307 308 309 313 317 319 321 320 323 333 335 330 334 339 339 342 342 338 333 326 323 325 322
235 231 230 233 237 238 241 244 247 249 249 247 245 245 246 247 244 235 229 226 225 223 225 227 229 231 236 239 243 248 248 249 253 260 267 274 278 275 270 268 270 267 264 263 265 269 272 277 285 289 291 294 297 301 303 303 304 305 305 306 306 307 307 307 308 311 314 317 320 318 322 332 335 329 332 338 338 341 344 344 342 339 336 336 334
230 224 221 225 229 233 238 241 244 247 249 250 249 249 250 250 244 236 230 227 227 228 229 230 231 237 243 247 250 254 256 256 258 262 268 274 278 279 278 279 279 277 273 270 269 267 267 270 278 284 291 295 298 300 301 301 303 304 304 304 305 305 304 304 305 308 312 317 320 319 321 330 334 331 333 336 337 341 346 349 350 350 351 351 350
241 239 236 233 231 230 232 236 240 245 247 248 248 248 249 247 241 236 233 230 229 233 236 237 238 241 246 249 252 255 258 261 262 265 268 272 275 276 277 279 279 278 276 276 274 272 271 275 279 284 291 295 295 296 297 298 299 299 297 297 298 299 300 302 306 311 317 323 324 322 324 331 335 334 332 335 340 342 347 355 357 357 357 358 356
245 245 243 242 241 238 235 233 237 241 242 242 242 242 242 241 238 236 235 234 234 237 239 240 240 241 245 249 253 257 262 264 264 264 265 266 269 271 275 280 283 282 281 278 277 277 279 283 285 287 290 290 289 290 291 292 294 295 296 297 300 301 305 310 314 319 325 330 329 328 332 337 340 337 333 336 344 347 349 356 1 360 358 357 358
249 248 247 245 243 240 236 233 234 237 238 238 239 240 241 240 239 239 240 241 240 238 239 240 240 242 244 248 252 258 264 267 264 262 261 262 264 268 273 278 281 283 283 279 277 278 281 284 285 285 285 284 284 285 287 290 293 297 301 305 306 308 312 316 318 321 328 339 343 339 339 342 343 342 338 337 341 348 353 356 359 0 0 2 3
257 255 252 250 248 243 238 235 236 236 236 235 236 239 240 241 242 241 241 245 245 239 238 239 240 241 244 247 251 257 264 267 265 262 261 261 263 266 270 273 276 278 279 277 275 276 278 279 280 279 277 278 280 283 285 289 295 301 308 310 311 314 316 319 322 325 333 346 351 343 336 337 340 343 343 341 339 341 347 354 1 4 5 4 2